Flag for Poland Weather past 2 weeks in Poznan, Poland

Now
64 °F

Passing clouds.


Feels Like: 64 °F
Forecast: 47 / 68 °F
Wind: 7 mph from Northwest

Location: Poznan Airport

Current Time: May 23, 2015 at 11:29:46 AM

Latest Report: May 23, 2015 at 11:00 AM


Visibility: N/A

Pressure: 30.09 "Hg

Humidity: 37%

Dew point: 37 °F

Location of PoznanLocation

Historic Weather in Poznan — Graph

°F

Poznan temperature yesterday

Maximum temperature yesterday: 66 °F (at 4:00 PM)
Minimum temperature yesterday: 41 °F (at 4:30 AM)
Average temperature yesterday: 56 °F

Past Weeks' High & Low Weather Summary

 TemperatureHumidityPressure
High75 °F (May 12, 2:00 PM)94% (May 9, 10:30 PM)30.39 "Hg (May 9, 10:30 PM)
Low37 °F (May 16, 3:30 AM)26% (May 11, 3:30 PM)29.62 "Hg (May 19, 5:00 AM)
Average56 °F61%30.03 "Hg
* Reported May 8 10:00 AM — May 23 10:30 AM, Poznan, Weather by CustomWeather, © 2015

Note: Actual official high and low records may vary slightly from our data, if they occured in-between our weather recording intervals... More about our weather records

Advertising

Poznan weather history for previous 24 hours

 ConditionsComfort  
Time TempWeatherWind HumidityBarometerVisibility
10:30 AM
Sat, May 23
64 °FSunny.5 mph37%30.09 "Hg10 mi
10:00 AM64 °FSunny.2 mph37%30.09 "Hg10 mi
9:30 AM63 °FSunny.2 mph42%30.09 "Hg10 mi
9:00 AM61 °FSunny.2 mph48%30.09 "Hg10 mi
8:30 AM59 °FSunny.3 mph55%30.09 "Hg10 mi
8:00 AM57 °FSunny.2 mph59%30.09 "Hg10 mi
7:30 AM54 °FSunny.No wind67%30.12 "Hg10 mi
7:00 AM50 °FSunny.No wind76%30.09 "Hg10 mi
6:30 AM46 °FFog.No wind82%30.12 "HgN/A
6:00 AM45 °FFog.1 mph81%30.12 "HgN/A
5:30 AM43 °FFog.1 mph81%30.12 "HgN/A
5:00 AM43 °FFog.1 mph87%30.12 "HgN/A
4:30 AM43 °FFog.2 mph87%30.12 "HgN/A
4:00 AM43 °FClear.1 mph81%30.12 "Hg10 mi
3:30 AM45 °FClear.No wind76%30.12 "Hg10 mi
3:00 AM45 °FClear.1 mph76%30.15 "Hg10 mi
2:30 AM45 °FClear.No wind76%30.15 "Hg10 mi
2:00 AM46 °FClear.1 mph76%30.15 "Hg10 mi
1:30 AM46 °FClear.1 mph76%30.15 "Hg10 mi
1:00 AM52 °FClear.1 mph67%30.18 "Hg10 mi
12:30 AM52 °FClear.2 mph67%30.18 "Hg10 mi
12:00 AM52 °FClear.6 mph67%30.18 "Hg10 mi
11:00 PM
Fri, May 22
52 °FClear.No wind62%30.18 "Hg10 mi
10:30 PM52 °FClear.No wind67%30.18 "Hg10 mi
10:00 PM54 °FClear.No wind54%30.18 "Hg10 mi
9:30 PM57 °FSunny.No wind51%30.18 "Hg10 mi
9:00 PM61 °FSunny.2 mph39%30.18 "Hg10 mi
8:30 PM63 °FSunny.3 mph34%30.18 "Hg10 mi
8:00 PM63 °FSunny.5 mph34%30.18 "Hg10 mi
7:30 PM64 °FPassing clouds.5 mph30%30.18 "HgN/A
7:00 PM66 °FPassing clouds.5 mph28%30.18 "HgN/A
6:30 PM66 °FPassing clouds.6 mph30%30.18 "HgN/A
6:00 PM66 °FPassing clouds.7 mph28%30.18 "HgN/A
5:30 PM66 °FSunny.6 mph28%30.18 "Hg10 mi
5:00 PM66 °FSunny.3 mph28%30.21 "Hg10 mi
4:30 PM66 °FPassing clouds.7 mph30%30.21 "HgN/A
4:00 PM66 °FPassing clouds.7 mph30%30.21 "HgN/A
3:30 PM64 °FPassing clouds.7 mph30%30.21 "HgN/A
3:00 PM64 °FSunny.6 mph32%30.24 "Hg10 mi
2:30 PM64 °FPassing clouds.6 mph32%30.24 "HgN/A
2:00 PM64 °FSunny.5 mph30%30.24 "Hg10 mi
1:30 PM63 °FPassing clouds.5 mph34%30.24 "HgN/A
1:00 PM63 °FSunny.5 mph37%30.27 "Hg10 mi
12:30 PM63 °FPassing clouds.7 mph34%30.27 "HgN/A
12:00 PM63 °FSunny.6 mph37%30.27 "Hg10 mi
11:30 AM63 °FSunny.3 mph37%30.27 "Hg10 mi
11:00 AM63 °FPassing clouds.5 mph37%30.27 "HgN/A
Weather by CustomWeather, © 2015

See weather overviewHow to use our weather pages